EGCK

Details ICAO EGCK
Name Caernarfon
Region United Kingdom
Timezone Europe/London (UTC+1.0)
Plans Departing 105
Arriving 116
Stats Elevation 13 ft / 4 m (AMSL)
Location 53.103100° -4.338720°
Runways 2
Magnetic Variation 1.489° W
Sunrise 2022-06-26 03:53:22 UTC / 2022-06-26 04:53:22 Local
Sunset 2022-06-26 20:49:21 UTC / 2022-06-26 21:49:21 Local
Advertisement - Login to hide

Runways

ID Width Length Bearing (true/mag) Surface Threshold Overrun Markings Lighting
02 75 ft / 23 m 3,500 ft / 1,067 m 13.18° / 14.67° ASPHALT 253 ft / 77 m 0 ft / 0 m VISUAL CENTERLINE EDGE THRESHOLD
07 75 ft / 23 m 2,995 ft / 913 m 70.77° / 72.26° ASPHALT 151 ft / 46 m 0 ft / 0 m VISUAL CENTERLINE EDGE THRESHOLD
20 75 ft / 23 m 3,500 ft / 1,067 m 193.18° / 194.67° ASPHALT 0 ft / 0 m 0 ft / 0 m VISUAL CENTERLINE EDGE THRESHOLD
25 75 ft / 23 m 2,995 ft / 913 m 250.78° / 252.27° ASPHALT 266 ft / 81 m 0 ft / 0 m VISUAL CENTERLINE EDGE THRESHOLD

Map

Weather


0- 5 10 15 20 25 30 35+ Temperature / °C

Clouds and Precipitation
Forecast for 2022-06-26 18:00 UTC. Updated 6 hours ago

Ground ~20,000 ft ~40,000 ft Winds

METAR

EGCK 262050Z AUTO 20017KT 9999 -RA SCT017/// OVC037/// 14/12 Q1008

TAF

Not found

Frequencies

Tower 122.25 MHz Caernarfon Radio
Warning: Do not use this data for real-world aviation or navigation. No guarantee of current accuracy is given.